Location: Newark
(35.2672°N, 80.7344°W)
Time: 21:07:54
(UTC+00:00)

Vanguard 1 - Pass Details

Date: 01 February 2020
Orbit: 650 x 3833 km, 34.2° (Epoch: 22 February)

Event Time Altitude Azimuth Distance (km) Brightness Sun altitude
Rises 23:57:55 0° 277° (W) 2,969 14.0 -14.2°
Reaches altitude 10° 00:00:08 10° 272° (W) 2,046 13.0 -14.6°
Maximum altitude 00:04:26 53° 195° (SSW) 873 9.9 -15.5°
Enters shadow 00:08:49 15° 122° (ESE) 2,160 11.4 -16.4°
